User: anonymous   Login
Location: Del Amo
(33.8464°N, 118.2104°W)
Time: 11:08:55
(UTC+00:00)
Language:

CUTE 1.7 + AOD 2 - Orbit

View from above orbital plane
View from above orbital plane
View from above satellite
View from above satellite

Ground track
Ground track

The orbit data is extracted from the following two-line orbital elements,

1 32785U 08021C   24279.85431884  .00021555  00000-0  17750-2 0  9991
2 32785  97.7683 244.4812 0008384 333.0304  27.0482 14.99070266892119
Epoch (UTC): 05 October 2024 20:30:13
Eccentricity: 0.0008384
inclination: 97.7683°
perigee height: 564 km
apogee height: 575 km
right ascension of ascending node: 244.4812°
argument of perigee: 333.0304°
revolutions per day: 14.99070266
mean anomaly at epoch: 27.0482°
orbit number at epoch: 89211

The dashed part of the orbit path shows where the satellite is in the earth's shadow,  

DLR